Weather History for Buffalo, WY

Change the Weather History Date:

Friday, March 15, 2013

  Actual Average Record
Temperature  
Mean Temperature 49 °F 34 °F  
Max Temperature 60 °F 46 °F 67 °F (1992)
Min Temperature 37 °F 23 °F 9 °F (2002)
Degree Days  
Heating Degree Days 16 31  
Month to date heating degree days 429 492  
Since 1 July heating degree days 5378 5732  
Cooling Degree Days 0 0  
Month to date cooling degree days 0 0  
Year to date cooling degree days 0 0  
Moisture  
Dew Point 26 °F    
Average Humidity 45    
Maximum Humidity 64    
Minimum Humidity 25    
Precipitation  
Precipitation 0.00 in 0.02 in 0.01 in (2007)
Month to date precipitation 0.03 0.34  
Year to date precipitation 0.64 1.11  
Sea Level Pressure  
Sea Level Pressure 29.89 in    
Wind  
Wind Speed 11 mph (NNW)    
Max Wind Speed 26 mph    
Max Gust Speed 36 mph    
Visibility 10 miles    
Events      
T = Trace of Precipitation, MM = Missing Value Source: NWS Daily Summary

Daily Weather History Graph

Daily Weather History Graph

Search for Another Location

Airport:

Trip Planner

Search our weather history database for the weather conditions in past years. The results will help you decide how hot, cold, wet, or windy it might be!

Date:

Astronomy

Mar. 15, 2013 Rise Set
Actual Time 7:18 AM MDT 7:13 PM MDT
Civil Twilight 6:49 AM MDT 7:42 PM MDT
Nautical Twilight 6:16 AM MDT 8:16 PM MDT
Astronomical Twilight 5:41 AM MDT 8:50 PM MDT
Moon 9:00 AM MDT (3/15) 11:41 PM MDT (3/15)
Length of Visible Light 12h 52m
Length of Day
11h 54m
Waxing Crescent, 16% of the Moon is Illuminated
Mar 15
Waxing Crescent
Mar 19
First Quarter
Mar 27
Full
Apr 2
Last Quarter
Apr 10
New

Hourly Weather History & Observations

Time (MDT) Temp. Windchill Dew Point Humidity Pressure Visibility Wind Dir Wind Speed Gust Speed Precip Events Conditions
12:53 AM 46.0 °F - 28.0 °F 50% 29.92 in 10.0 mi Calm Calm - N/A   Clear
1:53 AM 50.0 °F - 27.0 °F 41% 29.87 in 10.0 mi South 4.6 mph - N/A   Clear
3:53 AM 44.1 °F 39.5 °F 28.0 °F 53% 29.84 in 10.0 mi West 8.1 mph - N/A   Clear
4:53 AM 46.0 °F 41.4 °F 26.1 °F 46% 29.79 in 10.0 mi WSW 9.2 mph - N/A   Clear
5:53 AM 43.0 °F 41.3 °F 27.0 °F 53% 29.82 in 10.0 mi SW 3.5 mph - N/A   Clear
6:53 AM 44.1 °F - 24.1 °F 45% 29.83 in 10.0 mi Calm Calm - N/A   Clear
7:53 AM 46.9 °F - 21.9 °F 37% 29.86 in 10.0 mi WSW 6.9 mph - N/A   Clear
8:53 AM 52.0 °F - 25.0 °F 35% 29.86 in 10.0 mi North 10.4 mph - N/A   Clear
9:53 AM 55.0 °F - 24.1 °F 30% 29.87 in 10.0 mi NNW 10.4 mph - N/A   Clear
10:53 AM 55.9 °F - 25.0 °F 30% 29.87 in 10.0 mi North 11.5 mph 23.0 mph N/A   Clear
11:53 AM 57.9 °F - 24.1 °F 27% 29.88 in 10.0 mi North 10.4 mph - N/A   Partly Cloudy
12:53 PM 57.9 °F - 23.0 °F 26% 29.86 in 10.0 mi NNW 20.7 mph 28.8 mph N/A   Clear
1:53 PM 60.1 °F - 24.1 °F 25% 29.83 in 10.0 mi North 16.1 mph 26.5 mph N/A   Partly Cloudy
2:53 PM 59.0 °F - 25.0 °F 27% 29.84 in 10.0 mi North 21.9 mph 29.9 mph N/A   Partly Cloudy
3:53 PM 57.0 °F - 26.1 °F 30% 29.85 in 10.0 mi North 13.8 mph 26.5 mph N/A   Partly Cloudy
4:53 PM 55.9 °F - 21.9 °F 27% 29.86 in 10.0 mi NNW 21.9 mph 27.6 mph N/A   Clear
5:53 PM 54.0 °F - 24.1 °F 31% 29.88 in 10.0 mi NW 20.7 mph 28.8 mph N/A   Clear
6:53 PM 51.1 °F - 23.0 °F 33% 29.90 in 10.0 mi NW 19.6 mph 27.6 mph N/A   Clear
7:53 PM 45.0 °F 38.5 °F 27.0 °F 49% 29.96 in 10.0 mi North 13.8 mph 24.2 mph N/A   Mostly Cloudy
8:53 PM 43.0 °F 36.0 °F 28.0 °F 56% 29.98 in 10.0 mi North 13.8 mph 24.2 mph N/A   Mostly Cloudy
9:53 PM 39.9 °F 35.8 °F 28.0 °F 63% 29.99 in 10.0 mi NNE 5.8 mph - N/A   Scattered Clouds
10:53 PM 39.9 °F 37.8 °F 28.0 °F 63% 30.00 in 10.0 mi North 3.5 mph - N/A   Partly Cloudy
11:53 PM 37.9 °F 35.5 °F 28.9 °F 70% 30.00 in 10.0 mi West 3.5 mph - N/A   Overcast